Location: Laguna de la Cañada del Gallo
(40.3974°N, 5.2096°W)
Time: 12:35:07
(UTC+00:00)

Cosmos 1354 Rocket - Pass Details

Date: 18 April 2024
Orbit: 762 x 781 km, 74.0° (Epoch: 21 May)

Event Time Altitude Azimuth Distance (km) Brightness Sun altitude
Rises 20:36:20 0° 345° (NNW) 3,275 8.0 -17.0°
Reaches altitude 10° 20:38:48 10° 350° (N) 2,344 7.1 -17.4°
Maximum altitude 20:44:00 52° 67° (ENE) 964 4.3 -18.2°
Enters shadow 20:45:58 34° 123° (ESE) 1,258 4.5 -18.5°
